Regional Weather Roundup
Issued by NWS

Home | Current Version | Previous Version | Graphics & Text | Print | Product List | Glossary On
Versions: 1 2 3 4 5 6 7 8 9 10 11 12 13 14 15 16 17 18 19 20 21 22 23 24 25 26 27 28 29 30 31 32 33 34 35 36 37 38 39 40 41 42 43 44 45 46 47 48 49 50
000
ASUS43 KDTX 221910
RWRMI
MICHIGAN HOURLY REGIONAL WEATHER ROUNDUP
NATIONAL WEATHER SERVICE DETROIT/PONTIAC MI
300 PM EDT FRI MAY 22 2015

NOTE: "FAIR" INDICATES FEW OR NO CLOUDS BELOW 12,000 FEET WITH NO
SIGNIFICANT WEATHER AND/OR OBSTRUCTION TO VISIBILITY.

MIZ047>049-052>055-059>063-066>070-074>076-081>083-222000-
SOUTHEAST LOWER MICHIGAN

CITY           SKY/WX    TMP DP  RH WIND       PRES   REMARKS
ADRIAN         SUNNY     67  28  23 NW7       30.22R
ALMA           SUNNY     64  29  27 NW7       30.22R
ANN ARBOR      SUNNY     65  32  29 NW14G24   30.21R
BAD AXE        SUNNY     55  31  41 NE6       30.23R
CARO           SUNNY     61  32  34 NW8G18    30.21R
DETROIT CITY   SUNNY     64  28  25 NW16G23   30.20R
DETROIT        MOSUNNY   66  33  29 NW10G20   30.21R
FLINT          SUNNY     65  28  24 NW9G17    30.21R
GROSSE ILE     SUNNY     66  23  19 NW14G20   30.20R
HILLSDALE      SUNNY     67  31  26 W9        30.22S
HOWELL         SUNNY     63  28  27 NW13G20   30.22R

CITY           SKY/WX    TMP DP  RH WIND       PRES   REMARKS
JACKSON        SUNNY     65  33  30 NW14G20   30.22R
LAMBERTVILLE   SUNNY     68  30  24 N6G17     30.22R
LANSING        SUNNY     65  30  27 NW12G17   30.23R
LAPEER         FAIR      60  26  26 CALM      30.22S
MASON          SUNNY     61  32  33 NW9       30.23R
MONROE         SUNNY     66  30  26 NW9G22    30.20R
MT. CLEMENS    MOSUNNY   61  31  31 NW12G22   30.19R
PONTIAC        MOSUNNY   62  30  29 N12G21    30.21R
PORT HOPE        N/A     45  35  68 NE7       30.24R
PORT HURON     SUNNY     54  34  47 NE14G20   30.24R
TRI CITIES     SUNNY     65  26  23 NW8G22    30.21R
MIDLAND        FAIR      63  24  22 NW12G20   30.20S
TROY           SUNNY     64  30  28 NW13G18   30.23R
SAGINAW HB     SUNNY     64  23  20 NW15G28   30.21R
$$
MIZ043>046-050>051-056>058-064>065-071>073-077>080-222000-
SOUTHWEST LOWER MICHIGAN

CITY           SKY/WX    TMP DP  RH WIND       PRES   REMARKS
BATTLE CREEK   SUNNY     66  33  29 W13G21    30.23R
BENTON HARBOR  SUNNY     58  34  40 NW8       30.26R
BIG RAPIDS     SUNNY     63  18  17 NW6G21    30.21S
COLDWATER      SUNNY     65  32  28 NW5       30.22S
FREMONT        FAIR      64  24  21 NW9       30.23S
HOLLAND        SUNNY     62  33  33 NW10      30.27R
GRAND RAPIDS   SUNNY     67  31  26 NW8       30.23R
IONIA          FAIR      65  31  28 NW6       30.21S
KALAMAZOO      SUNNY     68  33  27 VRB7      30.23S
LUDINGTON      SUNNY     61  19  20 NW9       30.28R
MARSHALL       SUNNY     66  33  29 SW5       30.22S
MOUNT PLEASANT SUNNY     64  25  22 NW9       30.21S
MUSKEGON       SUNNY     61  24  24 W13G22    30.26R
SOUTH HAVEN    SUNNY     60  31  33 N9        30.26S
$$
MIZ016>042-222000-
NORTHERN LOWER MICHIGAN

CITY           SKY/WX    TMP DP  RH WIND       PRES   REMARKS
ALPENA         SUNNY     56  22  26 N16G24    30.22R
BEAVER ISLAND  SUNNY     55  22  27 NW6       30.25S
BELLAIRE       SUNNY     56  21  25 N8G17     30.27R
CADILLAC       SUNNY     61  24  24 NW9G20    30.22R
CHARLEVOIX     SUNNY     50  25  38 NW3       30.30S
FRANKFORT      SUNNY     60   9  13 N7        30.27R
GAYLORD        SUNNY     52  16  24 N9G22     30.24R
GRAYLING       SUNNY     57  19  23 NW13G18   30.23S
HARBOR SPRINGS SUNNY     54  20  27 NW12G21   30.25S
HOUGHTON LAKE  SUNNY     59  17  19 NW15G23   30.23R
MANISTEE       SUNNY     55  19  24 NW7G16    30.29R
OSCODA         SUNNY     48  32  53 E9        30.22R
PELLSTON       SUNNY     55  21  26 NW18G25   30.25S
ROGERS CITY    SUNNY     50  25  37 NW16G25   30.25R
TRAVERSE CITY  SUNNY     52  27  38 NE10      30.27R
$$
MIZ007>008-015-222000-
EASTERN UPPER MICHIGAN

CITY           SKY/WX    TMP DP  RH WIND       PRES   REMARKS
KINROSS        SUNNY     46  18  31 NW20G29   30.24R
MACKINAC ISLAN SUNNY     53  22  29 NW10G17   30.23S
NEWBERRY       SUNNY     51  23  33 N12G23    30.24S
S. S. MARIE    SUNNY     44  22  41 NW16      30.24S
MUNISING         N/A     47  29  49 NE13      30.27R
$$
MIZ004>006-011>014-085-222000-
CENTRAL UPPER MICHIGAN

CITY           SKY/WX    TMP DP  RH WIND       PRES   REMARKS
MANISTIQUE     SUNNY     51  28  41 S14       30.24R
ESCANABA       SUNNY     52  28  40 SE15      30.24S
MENOMINEE      SUNNY     57  25  28 SE12G17   30.24S
SAWYER-GWINN   SUNNY     54  23  30 NE13      30.23R
$$
MIZ001>003-009>011-084-222000-
WESTERN UPPER MICHIGAN

CITY           SKY/WX    TMP DP  RH WIND       PRES   REMARKS
IRON MOUNTAIN  SUNNY     66  21  18 N10       30.19S
HOUGHTON       SUNNY     54  31  41 E12       30.23R
COPPER HARBOR    N/A     51  32  48 VRB5      30.24S
IRONWOOD       SUNNY     61  28  29 NW7       30.21S
$$

ABBREVIATIONS USED IN REMARKS
   TC - TEMPERATURE IN CELSIUS
  WCI - WIND CHILL INDEX
   HX - HEAT INDEX
  VSB - VISIBILITY



USA.gov is the U.S. government's official web portal to all federal, state and local government web resources and services.